Location: Marcé
(47.5801°N, 0.3280°W)
Time: 14:56:39
(UTC+01:00)

Vanguard 3 - Pass Details

Date: 12 December 2021
Orbit: 508 x 3260 km, 33.3° (Epoch: 20 January)

Event Time Altitude Azimuth Distance (km) Brightness Sun altitude
Rises 06:14:51 0° 267° (W) 6,955 - -23.4°
Reaches altitude 10° 06:19:36 10° 262° (W) 6,095 - -22.6°
Exits shadow 06:24:18 21° 255° (WSW) 5,297 10.7 -21.9°
Maximum altitude 06:37:36 45° 199° (SSW) 3,851 10.4 -19.7°
Drops below altitude 10° 06:52:38 10° 134° (SE) 5,142 12.2 -17.2°
Sets 06:56:16 0° 128° (SE) 5,831 12.8 -16.6°
